TimeEST,TemperatureF,Dew PointF,Humidity,Sea Level PressureIn,VisibilityMPH,Wind Direction,Wind SpeedMPH,Gust SpeedMPH,PrecipitationIn,Events,Conditions,WindDirDegrees,DateUTC
12:54 AM,36.0,30.0,79,30.30,9.0,North,5.8,-,N/A,,Clear,350,2012-11-16 05:54:00
1:54 AM,35.1,30.0,82,30.30,8.0,North,4.6,-,N/A,,Clear,350,2012-11-16 06:54:00
2:54 AM,35.1,30.0,82,30.30,8.0,North,4.6,-,N/A,,Clear,350,2012-11-16 07:54:00
3:54 AM,35.1,30.0,82,30.29,8.0,North,6.9,-,N/A,,Clear,360,2012-11-16 08:54:00
4:54 AM,33.1,28.9,85,30.29,8.0,North,4.6,-,N/A,,Clear,350,2012-11-16 09:54:00
5:54 AM,33.1,28.9,85,30.30,8.0,North,4.6,-,N/A,,Clear,350,2012-11-16 10:54:00
6:54 AM,33.1,30.0,89,30.31,7.0,North,3.5,-,N/A,,Clear,350,2012-11-16 11:54:00
7:54 AM,36.0,30.9,82,30.33,7.0,North,4.6,-,N/A,,Clear,350,2012-11-16 12:54:00
8:54 AM,41.0,34.0,76,30.34,8.0,Calm,Calm,-,N/A,,Clear,0,2012-11-16 13:54:00
9:54 AM,46.9,37.9,71,30.35,10.0,NE,5.8,-,N/A,,Clear,50,2012-11-16 14:54:00
10:54 AM,51.1,39.0,63,30.34,10.0,NNE,5.8,-,N/A,,Clear,30,2012-11-16 15:54:00
11:54 AM,53.1,37.0,55,30.32,10.0,NE,6.9,-,N/A,,Clear,50,2012-11-16 16:54:00
12:54 PM,55.9,36.0,47,30.30,10.0,NNE,5.8,-,N/A,,Clear,30,2012-11-16 17:54:00
1:54 PM,57.0,35.1,44,30.29,10.0,NNE,4.6,-,N/A,,Clear,30,2012-11-16 18:54:00
2:54 PM,57.0,33.1,40,30.28,10.0,NNE,6.9,-,N/A,,Clear,20,2012-11-16 19:54:00
3:54 PM,55.9,32.0,40,30.28,10.0,NNE,6.9,-,N/A,,Clear,30,2012-11-16 20:54:00
4:54 PM,52.0,33.1,49,30.29,10.0,NE,5.8,-,N/A,,Clear,50,2012-11-16 21:54:00
5:54 PM,48.0,34.0,58,30.31,10.0,Calm,Calm,-,N/A,,Clear,0,2012-11-16 22:54:00
6:54 PM,44.1,35.1,71,30.32,10.0,Calm,Calm,-,N/A,,Clear,0,2012-11-16 23:54:00
7:54 PM,44.1,35.1,71,30.35,10.0,NNE,3.5,-,N/A,,Clear,20,2012-11-17 00:54:00
8:54 PM,43.0,34.0,71,30.36,10.0,NNE,3.5,-,N/A,,Clear,30,2012-11-17 01:54:00
9:54 PM,43.0,33.1,68,30.38,10.0,North,4.6,-,N/A,,Clear,10,2012-11-17 02:54:00
10:54 PM,43.0,32.0,65,30.38,10.0,North,3.5,-,N/A,,Clear,10,2012-11-17 03:54:00
11:54 PM,39.0,32.0,76,30.40,10.0,NNE,3.5,-,N/A,,Clear,20,2012-11-17 04:54:00